Location: downtown San Diego
(32.7310°N, 117.1990°W)
Time: 15:35:34
(UTC-07:00)

Cosmos 2154 Rocket - Pass Details

Date: 12 July 2018
Orbit: 967 x 996 km, 82.9° (Epoch: 18 July)

Event Time Altitude Azimuth Distance (km) Brightness Sun altitude
Rises 21:55:09 0° 357° (N) 3,706 7.8 -20.6°
Reaches altitude 10° 21:57:42 10° 360° (N) 2,751 7.0 -21.0°
Maximum altitude 22:04:00 69° 83° (E) 1,048 4.0 -21.9°
Enters shadow 22:06:07 43° 151° (SSE) 1,355 4.3 -22.2°
